sat.trackr.live / text

‹ back to catalog

STARLINK-30601

NORAD 58117 · 2023-161W

PAYLOAD ACTIVE UNKNOWN

§ Identity

Operator
Country
US
Launch date
2023-10-21
Launch site
AFWTR
Launch vehicle
Mass (kg)
RCS (m²)

Purposes: comms

External: N2YO · Heavens-Above · Gunter

§ Orbital elements

Epoch: 2026-05-25T01:52:37.085664Z

Period
94.11 min
Inclination
53.1596°
Eccentricity
0.0001031
Mean motion
15.30194070 rev/d
Perigee alt
474.5 km
Apogee alt
475.9 km
Semi-major
6,853.4 km
B*
7.0948e-5
RAAN
170.9554°
Arg perigee
80.8074°
Mean anomaly
279.3043°
Rev number
14,611

§ Raw data

STARLINK-306011 58117U 23161W   26145.07820701  .00001742  00000+0  70948-4 0  99932 58117  53.1596 170.9554 0001031  80.8074 279.3043 15.30194070146117

JSON: /api/v1/satellites/58117 · /tle

For live sub-satellite position, see the globe view (requires WebGL).

§ Visibility from observer

Set your observer location to see the next 7 days of passes ≥ 10°. The values pass through the URL so the page stays shareable.

No JS? Fill the form by hand. The geolocation button needs JavaScript.